Regional Weather Roundup
Issued by NWS Upton, NY

Current Version | Previous Version | Text Only | Print | Product List | Glossary On
Versions: 1 2 3 4 5 6 7 8 9 10 11 12 13 14 15 16 17 18 19 20 21 22 23 24 25 26 27 28 29 30 31 32 33 34 35 36 37 38 39 40 41 42 43 44 45 46 47 48 49 50
143
ASUS41 KOKX 232009
RWROKX

REGIONAL WEATHER ROUNDUP
NATIONAL WEATHER SERVICE NEW YORK NY
400 PM EDT SUN JUL 23 2017

NOTE: "FAIR" INDICATES FEW OR NO CLOUDS BELOW 12,000 FEET WITH NO
SIGNIFICANT WEATHER AND/OR OBSTRUCTIONS TO VISIBILITY.

NYZ071-072-176-178-NJZ106-104-232100-
NEW YORK CITY METRO AREA

CITY           SKY/WX    TMP DP  RH WIND       PRES   REMARKS
Central Park   CLOUDY    78  69  73 VRB3      29.84F
Bronx Bot Gard   N/A     75  66  73 E3        29.82F
LaGuardia APRT CLOUDY    76  70  82 NE8       29.81F
Kennedy INTL   PTSUNNY   79  70  74 SE12      29.82F
Breezy Point     N/A     75 N/A N/A SE8         N/A
Newark/Liberty CLOUDY    80  66  62 VRB6      29.81F
Teterboro      CLOUDY    79  68  69 SE9       29.80F
$$

NYZ177-179-078>081-232100-
LONG ISLAND NEW YORK

CITY           SKY/WX    TMP DP  RH WIND       PRES   REMARKS
Jones Beach      N/A     73 N/A N/A E12G17      N/A
Matinecock PT    N/A     73 N/A N/A E6          N/A
Farmingdale    CLOUDY    76  67  73 SE9       29.83S
MacArthur/ISP  PTSUNNY   78  67  68 E7        29.83R
Shirley        CLOUDY    77  66  68 VRB5      29.84S
Mt Sinai Harb    N/A    N/A N/A N/A E8G15       N/A
Westhampton    PTSUNNY   76  62  62 E10       29.85S
East Hampton   FAIR      73  61  66 NE10G16   29.85S
Montauk          N/A     72  62  71 E9        29.87S
$$

NYZ052-065-067-232100-
HUDSON VALLEY

CITY           SKY/WX    TMP DP  RH WIND       PRES   REMARKS
White Plains   CLOUDY    75  66  73 E12       29.83S
Larchmont Harb   N/A     72 N/A N/A NE15        N/A
Croton O-T Hud   N/A     79 N/A N/A SE5         N/A
Newburgh       CLOUDY    79  70  73 NE12      29.83F
Montgomery     CLOUDY    78  68  71 NE3       29.81F
Poughkeepsie   CLOUDY    78  63  59 E8        29.80F
Albany         PTSUNNY   80  65  59 NE6       29.83F
$$

NJZ001-105-106-008-010-013-015-019>022-104-232100-
NEW JERSEY

CITY           SKY/WX    TMP DP  RH WIND       PRES   REMARKS
Newark/Liberty CLOUDY    80  66  62 VRB6      29.81F
Teterboro      CLOUDY    79  68  69 SE9       29.80F
Caldwell       CLOUDY    76  69  79 E6        29.82F
Somerville     CLOUDY    81  70  69 E5        29.78F
Linden         MOCLDY    80  63  56 S7        29.81S
Perth Amboy      N/A     77 N/A N/A E13         N/A
Sussex         CLOUDY    75  67  76 SE9       29.82S
Andover          N/A     72  69  90 VRB3      29.83S
Trenton        PTSUNNY   80  68  66 SE10      29.79F
Millville      CLOUDY    81  77  88 E13       29.78R
Atlantic City  MOSUNNY   81  71  71 E10       29.81R
Wrightstown    PTSUNNY   80  65  60 NW7       29.79S
Toms River     MOSUNNY   82  66  58 SE10      29.82S
Belmar         CLOUDY    79  66  64 SE12      29.83S
$$

PAZ047>061-062-071-232100-
EASTERN PENNSYLVANIA

CITY           SKY/WX    TMP DP  RH WIND       PRES   REMARKS
Philadelphia   PTSUNNY   89  71  55 E9        29.78S HX  95
Allentown      PTSUNNY   84  68  58 E7        29.80S
Scranton       CLOUDY    79  66  64 S6        29.80F
$$

CTZ002-004>006-009-010-012-RIZ004-006-007-MAZ004-011-015-232100-
SOUTHERN NEW ENGLAND
 IN CT

CITY           SKY/WX    TMP DP  RH WIND       PRES   REMARKS
Bradley INTL   PTSUNNY   80  59  48 S6        29.84F
Hartford       MOSUNNY   81  60  48 E6        29.82F
Danbury        CLOUDY    78  66  66 SE8       29.84F
Wtrbury/Oxford PTSUNNY   75  63  64 S9        29.85F
Bridgeport     MOSUNNY   76  63  64 E14       29.83F
Meriden        CLOUDY    79  65  62 S7        29.83F
New Haven      PTSUNNY   78  61  55 SE14G20   29.84F
Chester        FAIR      77  61  57 VRB6      29.85F
Groton         CLOUDY    74  59  59 SE12      29.85S
Wilimantic     PTSUNNY   81  58  45 S8        29.85S

 IN RI

CITY           SKY/WX    TMP DP  RH WIND       PRES   REMARKS
Providence     PTSUNNY   76  52  43 E10       29.87S
Block Island   CLOUDY    71  60  68 NE9       29.87S
Westerly       CLOUDY    77  58  51 E7        29.87R
 IN MA

CITY           SKY/WX    TMP DP  RH WIND       PRES   REMARKS
Boston         CLOUDY    68  53  58 E12       29.89F
Worcester      PTSUNNY   72  48  42 E7        29.89F
Westfield      MOSUNNY   81  57  43 E5        29.84F
Provincetown   CLOUDY    68  56  65 NE8       29.90R
Nantucket      MOSUNNY   73  59  61 NE15      29.86R
$$

ANZ330-335-338-340-345-350-353-355-232100-
COASTAL MARINE OBSERVATIONS


STATION/POSITION TIME  SKY/WX   TEMP    WIND        PRES    VSBY  WAVE
                                AIR SEA DIR/SP/G                  HT/PER
                 (UTC)          (F)     (DEG/KT/KT) (MB)    (MI)  (FT/S)
NY HARB ENTRANCE 1850            75 76  110/  8/ 10 1009.5          3/ 6
20 S FIRE ISLAND 1950            74 77   80/ 10/ 14 1009.4          4/ 8
GREAT SOUTH BAY  1930            74 83  100/ 14/ 16   N/A
23 SSW MONTAUK P 1850            73 75              1010.7          4/ 7
15 E BARNEGAT LI 1930               78                N/A           4/ 7
HUDSON CANYON    1850            74 79   60/ 12/ 14 1008.9          5/ 7
KINGS POINT      1936            76 73   60/  3/  4 1009.7
EXECUTION ROCKS  1945            74      80/  8/ 12   N/A
CENTRAL LI SOUND 1915            73      90/ 12/ 16   N/A           0
EASTERN LI SOUND NOT AVBL
ROBBINS REEF     1936                   180/ 12/ 13 1010.1
$$


>>>>>>>>>>>>>>>>>>>>>>>>>>>> KEY <<<<<<<<<<<<<<<<<<<<<<<<<<<
>                                                          <
>     SKY/WX - Sky Condition/Present Weather               <
>     TMP    - Temperature in Fahrenheit                   <
>     DP     - Dew Point in Fahrenheit                     <
>     RH     - Relative Humidity in Percent                <
>     WIND   - Direction (from) and Speed in MPH           <
>     PRES   - Mean Sea Level Pressure (inches of Hg)      <
>     WCI    - Wind Chill Index                            <
>     VSB    - VISIBILITY IN MILES                         <
>     HX     - HEAT INDEX                                  <
>     TC     - TEMPERATURE IN CELSIUS                      <
>     VRB    - VARIABLE WIND DIRECTION                     <
>                                                          <
>>>>>>>>>>>>>>>>>>>>>>>>>>>> KEY <<<<<<<<<<<<<<<<<<<<<<<<<<<




USA.gov is the U.S. government's official web portal to all federal, state and local government web resources and services.